Regional Weather Roundup
Issued by NWS

Home | Current Version | Previous Version | Graphics & Text | Print | Product List | Glossary Off
Versions: 1 2 3 4 5 6 7 8 9 10 11 12 13 14 15 16 17 18 19 20 21 22 23 24 25 26 27 28 29 30 31 32 33 34 35 36 37 38 39 40 41 42 43 44 45 46 47 48 49 50

000
ASUS43 KMPX 240610
RWRMN
WEATHER ROUNDUP FOR MINNESOTA
NATIONAL WEATHER SERVICE TWIN CITIES/CHANHASSEN MN
1200 AM CST WED JAN 24 2018


NOTE: "FAIR" INDICATES FEW OR NO CLOUDS BELOW 12,000 FEET WITH NO
SIGNIFICANT WEATHER AND/OR OBSTRUCTIONS TO VISIBILITY. N/A MEANS
CURRENT SKY AND/OR WEATHER CONDITIONS ARE NOT AVAILABLE.

MNZ060>063-068>070-240700-
   Twin Cities Metro

CITY           SKY/WX    TMP DP  RH WIND       PRES   REMARKS
TWIN CITIES    CLOUDY    18  12  77 SE3       30.20R
6HR MIN TEMP:  18; 6HR MAX TEMP:  25;

ST PAUL        FAIR      17  12  80 CALM      30.22R
CRYSTAL        FAIR      16  11  80 CALM      30.19R
BLAINE         FAIR      19  12  73 CALM      30.19R
LAKEVILLE      FAIR      12  12 100 CALM      30.19R
EDEN PRAIRIE   FAIR      17  11  77 CALM      30.19R
6HR MIN TEMP:  17; 6HR MAX TEMP:  25;

SOUTH ST PAUL  FAIR      16  13  90 CALM      30.20S
LAKE ELMO      FAIR      10   9  92 CALM      30.21R
$$
MNZ001>005-007-008-013>017-022>024-027-028-240700-
   Northwest Minnesota

CITY           SKY/WX    TMP DP  RH WIND       PRES   REMARKS
BEMIDJI        CLOUDY    18  17  94 S3        30.12S
HALLOCK        CLOUDY    21  19  93 SW6       30.12S WCI  14
ROSEAU         CLOUDY    21  18  86 SW5       30.11S WCI  15
WARROAD        LGT SNOW  18  16  93 SW5       30.11S WCI  11
THIEF RVR FALL CLOUDY    20  18  92 SW3       30.14R
CROOKSTON      CLOUDY    21  19  93 SW5       30.16S WCI  15
FOSSTON        CLOUDY    19  18  93 W9        30.14R WCI   9
DETROIT LAKES  CLOUDY    23  21  93 NW7       30.14S WCI  15
MOORHEAD       CLOUDY    21  18  86 W5        30.19S WCI  15
PARK RAPIDS    CLOUDY    19  16  88 W5        30.12S WCI  12
MAHNOMEN       CLOUDY    20  17  88 W8        30.14S WCI  11
$$
MNZ006-009>011-018-025>026-240700-
   North Central Minnesota

CITY           SKY/WX    TMP DP  RH WIND       PRES   REMARKS
BAUDETTE       CLOUDY    15  10  80 SE5       30.10F WCI   8
FLAG ISLAND    LGT SNOW  16  10  79 SE7       30.10S WCI   6
INTL FALLS     CLOUDY    10  -1  61 CALM      30.13S
6HR MIN TEMP:  -1; 6HR MAX TEMP:  10;

WASKISH        LGT SNOW  18  16  93 S3        30.12F
BIG FORK       CLOUDY    10   5  79 CALM      30.12S
LONGVILLE      CLOUDY     7   3  85 CALM      30.14S
GRAND RAPIDS   CLOUDY     7   3  84 S6        30.14F WCI  -3
CRANE LAKE     CLOUDY     5   0  78 CALM      30.17S
ORR            CLOUDY     3  -2  78 CALM      30.10S
COOK           CLOUDY     0  -4  85 CALM      30.13S
WALKER         CLOUDY    14  10  83 CALM      30.13S
$$
MNZ012-019>021-037-240700-
   Northeast Minnesota

CITY           SKY/WX    TMP DP  RH WIND       PRES   REMARKS
DULUTH         FAIR       6   0  76 CALM      30.12F
6HR MIN TEMP:   5; 6HR MAX TEMP:  19;

HIBBING        CLOUDY    -3  -6  87 CALM      30.13R
EVELETH        MOCLDY    -3  -8  79 CALM      30.14R
DULUTH HARBOR  FAIR      12   9  85 SW3       30.19S
TWO HARBORS    FAIR      18   3  53 N5        30.13F WCI  11
SILVER BAY     CLOUDY    12   0  57 VRB3      30.14S
GRAND MARAIS     N/A     12  -7  42 NE5       30.23R WCI   4
G MARAIS ARPRT CLOUDY     3 -11  51 CALM      30.11S
$$
MNZ029>031-032-039>041-046>048-054>057-064-240700-
   West Central Minnesota

CITY           SKY/WX    TMP DP  RH WIND       PRES   REMARKS
FERGUS FALLS   CLOUDY    21  19  93 NW12      30.17R WCI   9
WHEATON        CLOUDY    21  18  86 NW10      30.22R WCI  10
MORRIS         CLOUDY    25  21  86 W5        30.17R WCI  19
ALEXANDRIA     CLOUDY   N/A N/A N/A MISG      30.15S
ELBOW LAKE     CLOUDY    23  21  92 NW8       30.17R WCI  14
WADENA         CLOUDY    19  19 100 CALM      30.14R FOG
GLENWOOD       MOCLDY    21  21 100 NW5       30.16R WCI  15
APPLETON       CLOUDY    27  21  80 CALM      30.19R
BENSON         CLOUDY    27  21  80 CALM      30.19S
MADISON        CLOUDY    28  25  86 CALM      30.19S
WILLMAR        CLOUDY    25  19  80 W9        30.20S WCI  15
$$
MNZ033>034-036-042>043-049>051-058-059-240700-
   Central Minnesota

CITY           SKY/WX    TMP DP  RH WIND       PRES   REMARKS
ST CLOUD       FAIR      16  12  84 NW3       30.17S
6HR MIN TEMP:  15; 6HR MAX TEMP:  24;

SAUK CENTRE      N/A     21  19  90 W5        30.16S WCI  15
PAYNESVILLE    CLOUDY    23  20  91 W6        30.17F WCI  15
AITKIN         FAIR       1   0  92 W3        30.14R
PINE RIVER     CLOUDY    10   7  85 CALM      30.17S
BRAINERD       CLOUDY     7   3  84 CALM      30.16S
STAPLES        CLOUDY    18  18 100 W9        30.15R WCI   6
LONG PRAIRIE   CLOUDY    21  19  93 W5        30.16S WCI  15
LITTLE FALLS   CLOUDY    14   9  79 CALM      30.17S
LITCHFIELD     CLOUDY    23  19  86 NW3       30.18S
BUFFALO        FAIR      14  10  83 CALM      30.19S
MAPLE LAKE     FAIR      19  16  89 MISG      30.19S
HUTCHINSON     FAIR      16  15  95 CALM      30.19S
$$
MNZ037-044-045-052-053-240700-
   East Central Minnesota

CITY           SKY/WX    TMP DP  RH WIND       PRES   REMARKS
PRINCETON      FAIR      10   9  92 CALM      30.17S
MORA           FAIR       9   5  85 CALM      30.19S
CAMBRIDGE        N/A     12   7  79 CALM      30.19S
RUSH CITY      FAIR      12   8  81 CALM      30.19S
MOOSE LAKE     FAIR       5   1  85 CALM      30.14S
HINCKLEY       FAIR       9   5  85 CALM      30.17S
CLOQUET        FAIR       3   0  85 CALM      30.13S
MCGREGOR       FAIR       7   3  85 CALM      30.15S
$$
MNZ071>073-080-081-089-090-097-098-240700-
   Southwest Minnesota

CITY           SKY/WX    TMP DP  RH WIND       PRES   REMARKS
MONTEVIDEO     CLOUDY    25  21  86 N5        30.19S WCI  19
GRANITE FALLS  CLOUDY    27  23  85 NW10      30.21R WCI  17
CANBY          PTCLDY    20  19  96 W3        30.19S FOG
MARSHALL       CLOUDY    25  22  88 NW7       30.19S WCI  17
REDWOOD FALLS  CLOUDY    24  21  88 NW6       30.19R WCI  17
OLIVIA         CLOUDY    27  21  80 NW3       30.18S
PIPESTONE      CLOUDY    21  19  93 NW7       30.16S WCI  13
WINDOM         CLOUDY    23  10  58 W8        30.18R HAZE    WCI  14
WORTHINGTON    CLOUDY    22  21  96 W7        30.18R WCI  13
JACKSON        CLOUDY    23  21  93 NW6       30.19R WCI  16
TRACY          CLOUDY    26  24  93 NW8       30.17S WCI  17
SLAYTON        CLOUDY    24  22  93 NW8       30.17S WCI  15
$$
MNZ065>067-074>077-082>085-091>093-240700-
   South Central Minnesota

CITY           SKY/WX    TMP DP  RH WIND       PRES   REMARKS
MANKATO        FAIR      19  16  88 W6        30.20R WCI  11
NEW ULM        CLOUDY    18  16  93 CALM      30.19S
ST JAMES       CLOUDY    21  19  93 W5        30.21R WCI  15
FAIRMONT       CLOUDY    22  20  92 NW6       30.20S WCI  14
GLENCOE        FAIR      19  18  93 CALM      30.19R
FARIBAULT      FAIR      12  10  92 CALM      30.18S
OWATONNA       FAIR      12  10  92 SW5       30.17S WCI   4
WASECA         FAIR      12  10  92 CALM      30.20R
ALBERT LEA     FAIR      19  16  86 CALM      30.17S
$$
MNZ078>079-086>088-094>096-240700-
   Southeast Minnesota

CITY           SKY/WX    TMP DP  RH WIND       PRES   REMARKS
ROCHESTER      FAIR      14  12  92 CALM      30.16S
6HR MIN TEMP:  11; 6HR MAX TEMP:  15;

RED WING       FAIR      10   5  79 CALM      30.19F
STANTON        FAIR      10   7  87 CALM      30.18S
DODGE CENTER   FAIR      10   9  92 CALM      30.16S
WINONA         CLOUDY    18  16  93 NW5       30.20S WCI  11
AUSTIN         FAIR      16  14  93 CALM      30.17S
PRESTON        CLOUDY    16  13  88 NW5       30.17S WCI   9
$$
ABBREVIATIONS USED IN REMARKS
   TC - TEMPERATURES IN CELSIUS
  WCI - WIND CHILL INDEX
   HX - HEAT INDEX
  VSB - VISIBILITY
$$




USA.gov is the U.S. government's official web portal to all federal, state and local government web resources and services.